PBO Station Position Time Series. Reference Frame : NAM14
Format Version,1.1.0
4-character ID,P700
Station name,MSH_ButteCWA2006
Begin Date, 2006-09-27
End Date, 2019-10-07
Release Date, 2019-10-08
Reference position, 46.1781348822 North Latitude, -122.2173660526 East Longitude, 1521.66649 meters elevation,
Date, North (mm), East (mm), Vertical (mm), North Std. Deviation (mm), East Std. Deviation (mm),              Vertical Std. Deviation (mm), Quality,
2006-09-27,0.00, 0.00, 0.00, 2.33, 1.71, 7.96, repro,
2006-09-28,0.43, 0.18, 6.44, 2.34, 1.70, 7.83, repro,
2006-09-29,-1.89, -0.54, 13.05, 2.34, 1.72, 7.98, repro,
2006-09-30,-0.92, 0.84, 11.80, 2.49, 1.82, 8.54, repro,
2006-10-01,-1.22, 0.01, 7.06, 2.47, 1.82, 8.24, repro,
2006-10-02,0.28, 1.63, -0.72, 2.39, 1.79, 8.26, repro,
2006-10-03,-0.38, 1.07, 0.23, 2.44, 1.81, 8.33, repro,
2006-10-04,-1.14, -0.53, 10.59, 2.32, 1.67, 7.78, repro,
2006-10-05,-0.54, 0.05, 10.16, 2.36, 1.68, 7.84, repro,
2006-10-06,-1.07, 1.91, 6.94, 2.36, 1.67, 7.85, repro,
2006-10-07,1.37, -0.21, 3.04, 2.55, 1.84, 8.68, repro,
2006-10-08,-0.53, 1.76, -0.56, 2.45, 1.77, 8.33, repro,
2006-10-09,3.01, 2.00, -10.05, 2.44, 1.79, 8.20, repro,
2006-10-10,-0.02, 1.84, -1.53, 2.40, 1.74, 8.16, repro,
2006-10-11,1.63, 2.28, 1.94, 2.46, 1.79, 8.41, repro,
2006-10-12,-0.27, 1.67, 4.31, 2.38, 1.71, 8.03, repro,
2006-10-13,-0.65, 1.16, 8.25, 2.29, 1.66, 7.71, repro,
2006-10-14,-0.18, 0.54, 7.23, 2.34, 1.75, 8.02, repro,
2006-10-15,0.78, 1.97, 12.55, 2.33, 1.72, 7.88, repro,
2006-10-16,-4.77, -0.53, 14.39, 2.32, 1.67, 7.68, repro,
2006-10-17,2.22, 2.07, 6.39, 2.37, 1.75, 8.21, repro,
2006-10-18,-0.93, 2.65, 0.62, 2.31, 1.70, 7.97, repro,
2006-10-19,-3.27, 0.84, 2.63, 2.57, 1.84, 8.62, repro,
2006-10-20,-0.28, 1.55, 7.83, 2.74, 2.06, 9.68, repro,
2006-10-21,1.97, 2.47, -7.09, 2.56, 1.86, 8.84, repro,
2006-10-22,0.48, 2.93, 0.11, 2.37, 1.73, 8.08, repro,
2006-10-23,-1.20, 1.66, 2.60, 2.33, 1.68, 7.82, repro,
2006-10-24,-2.48, 1.97, 8.21, 2.53, 1.79, 8.49, repro,
2006-10-25,-6.08, -0.07, 7.91, 2.64, 1.90, 8.86, repro,
2006-10-26,-1.38, 1.53, 10.35, 2.35, 1.77, 8.06, repro,
2006-10-27,-0.54, 1.79, -4.67, 2.33, 1.73, 7.97, repro,
2006-10-28,-0.13, 2.57, -2.08, 2.39, 1.71, 8.04, repro,
2006-10-29,-1.14, 1.14, 4.32, 2.29, 1.73, 8.00, repro,
2006-10-30,2.06, 1.77, 4.26, 2.22, 1.66, 7.62, repro,
2006-10-31,1.60, 3.33, 0.50, 2.39, 1.80, 8.30, repro,
2006-11-01,0.74, 2.18, 0.93, 2.36, 1.75, 8.09, repro,
2006-11-02,1.46, -0.32, 7.62, 2.34, 1.74, 8.09, repro,
2006-11-03,-2.10, -1.38, 7.96, 2.31, 1.71, 7.91, repro,
2006-11-04,-0.69, 0.63, 1.55, 2.38, 1.74, 7.97, repro,
2006-11-05,-2.80, -0.16, 3.19, 2.35, 1.72, 7.80, repro,
2006-11-06,0.12, 2.57, -4.53, 2.27, 1.67, 7.68, repro,
2006-11-07,0.68, 0.87, -3.08, 2.41, 1.74, 8.07, repro,
2006-11-08,-3.91, 0.54, 10.43, 2.44, 1.73, 8.06, repro,
2006-11-09,1.45, 2.27, 3.73, 2.46, 1.80, 8.26, repro,
2006-11-10,1.78, 0.42, -1.38, 2.33, 1.67, 7.71, repro,
2006-11-11,-1.29, 1.10, 6.93, 2.53, 1.85, 8.33, repro,
2006-11-12,-1.66, 0.08, -0.37, 2.55, 1.84, 8.43, repro,
2006-11-13,-0.39, -0.24, 1.81, 2.39, 1.72, 7.88, repro,
2006-11-14,-4.18, -0.17, 7.53, 2.29, 1.64, 7.66, repro,
2006-11-15,3.20, 0.92, -0.88, 2.25, 1.65, 7.66, repro,
2006-11-16,-0.72, 0.43, 5.71, 2.26, 1.65, 7.68, repro,
2006-11-17,-0.20, 0.93, -4.91, 2.29, 1.67, 7.73, repro,
2006-11-18,0.66, 1.53, -5.76, 2.28, 1.65, 7.75, repro,
2006-11-19,0.20, 0.49, -5.46, 2.29, 1.65, 7.74, repro,
2006-11-20,-0.18, 0.26, -3.88, 2.26, 1.67, 7.72, repro,
2006-11-21,0.60, 1.08, 5.42, 2.28, 1.64, 7.68, repro,
2006-11-22,1.12, 2.05, 3.71, 2.26, 1.66, 7.71, repro,
2006-11-23,1.05, 2.70, -1.46, 2.38, 1.76, 8.24, repro,
2006-11-24,-1.62, 2.66, 1.84, 2.31, 1.70, 7.88, repro,
2006-11-25,-0.64, 3.45, -0.50, 2.29, 1.70, 7.82, repro,
2006-11-26,1.54, 1.98, -3.45, 2.36, 1.75, 8.06, repro,
2006-11-27,-0.47, 2.23, 4.45, 2.39, 1.68, 7.86, repro,
2006-11-28,1.54, 3.12, -2.40, 2.31, 1.71, 7.85, repro,
2006-11-29,-0.06, 3.86, -5.80, 2.35, 1.67, 7.88, repro,
2006-11-30,0.66, 0.53, 1.81, 2.26, 1.65, 7.67, repro,
2006-12-01,-0.01, 0.94, -4.44, 2.28, 1.71, 7.75, repro,
2006-12-02,0.12, 2.02, -15.08, 2.33, 1.71, 7.81, repro,
2006-12-03,-0.38, 2.29, -14.40, 2.30, 1.72, 7.72, repro,
2006-12-04,-0.93, 1.56, -13.95, 2.34, 1.69, 7.81, repro,
2006-12-05,-0.77, 2.80, -18.99, 2.32, 1.73, 7.81, repro,
2006-12-06,0.13, 2.98, -16.92, 2.35, 1.80, 8.09, repro,
2006-12-07,-1.30, 1.48, -5.49, 2.29, 1.74, 7.91, repro,
2006-12-08,-0.93, 1.93, -5.66, 2.32, 1.73, 7.92, repro,
2006-12-09,0.11, 2.63, -5.36, 2.31, 1.74, 7.90, repro,
2006-12-10,0.54, 0.26, -2.46, 2.31, 1.71, 7.82, repro,
2006-12-11,1.00, 4.47, -1.00, 2.28, 1.72, 7.88, repro,
2006-12-12,-0.31, 1.76, -5.39, 2.33, 1.75, 7.89, repro,
2006-12-13,-0.59, -1.10, -7.14, 2.26, 1.70, 7.71, repro,
2006-12-14,-0.71, -1.95, 1.65, 2.25, 1.69, 7.65, repro,
2006-12-15,-1.65, 0.64, -5.14, 2.37, 1.80, 8.21, repro,
2006-12-16,1.97, 1.01, -17.42, 2.32, 1.74, 7.91, repro,
2006-12-17,-0.05, 2.01, -13.41, 2.33, 1.83, 8.23, repro,
2006-12-18,0.90, 2.25, -13.64, 2.33, 1.79, 8.04, repro,
2006-12-19,0.98, 2.27, -12.77, 2.35, 1.87, 8.32, repro,
2006-12-20,0.61, 1.84, -7.51, 2.30, 1.77, 8.01, repro,
2006-12-21,0.42, 2.24, -12.89, 2.30, 1.82, 8.14, repro,
2006-12-22,0.39, 1.15, -11.94, 2.34, 1.81, 8.17, repro,
2006-12-23,0.91, 1.59, -14.65, 2.32, 1.79, 8.08, repro,
2006-12-24,-0.89, 1.10, -7.37, 2.30, 1.76, 7.92, repro,
2006-12-25,0.06, 1.19, -7.63, 2.28, 1.77, 7.85, repro,
2006-12-26,1.27, 0.07, -15.35, 2.29, 1.77, 7.91, repro,
2006-12-27,-1.18, 1.47, -12.42, 2.43, 1.88, 8.53, repro,
2006-12-28,-0.03, 2.80, -16.67, 2.43, 2.00, 8.95, repro,
2006-12-29,0.78, 0.12, -30.61, 2.29, 1.74, 7.96, repro,
2006-12-30,0.14, 1.65, -13.24, 2.31, 1.78, 7.93, repro,
2006-12-31,2.12, 2.76, -18.66, 2.39, 1.86, 8.38, repro,
2007-01-01,0.55, -0.42, -19.39, 2.40, 1.88, 8.43, repro,
2007-01-02,-0.33, 0.77, -13.19, 2.36, 1.91, 8.54, repro,
2007-01-03,-3.94, -0.34, -5.57, 2.30, 1.80, 8.13, repro,
2007-01-04,-3.45, -0.58, -9.36, 2.25, 1.70, 7.69, repro,
2007-01-05,-2.24, -0.61, -18.80, 2.23, 1.70, 7.63, repro,
2007-01-06,-2.67, -0.18, -9.89, 2.25, 1.71, 7.77, repro,
2007-01-07,-3.93, -0.93, -11.28, 2.32, 1.74, 7.84, repro,
2007-01-08,-3.18, 0.72, -17.76, 2.37, 1.83, 8.19, repro,
2007-01-09,-1.25, 1.39, -19.73, 2.34, 1.76, 8.00, repro,
2007-01-10,-0.37, 2.13, -8.90, 2.38, 1.77, 7.84, repro,
2007-01-11,0.29, 2.64, -17.37, 2.43, 1.78, 8.00, repro,
2007-01-12,1.70, 0.21, -18.28, 2.32, 1.72, 7.82, repro,
2007-01-13,2.92, 3.32, -27.87, 2.26, 1.69, 7.59, repro,
2007-01-14,0.85, 3.06, -29.43, 2.32, 1.68, 7.72, repro,
2007-01-15,1.78, 2.76, -25.33, 2.25, 1.69, 7.64, repro,
2007-01-16,0.98, 1.80, -20.76, 2.35, 1.76, 7.85, repro,
2007-01-17,0.02, 0.30, -18.40, 2.34, 1.81, 8.10, repro,
2007-01-18,0.44, 2.79, -33.12, 2.50, 1.90, 8.55, repro,
2007-01-19,-0.47, 2.39, -22.75, 2.38, 1.75, 8.05, repro,
2007-01-20,-4.43, -1.10, -9.12, 2.26, 1.64, 7.53, repro,
2007-01-21,-3.78, 1.43, -13.94, 2.25, 1.68, 7.51, repro,
2007-01-22,-2.20, -0.27, -14.19, 2.42, 1.88, 8.22, repro,
2007-01-23,1.02, 2.85, -20.46, 2.31, 1.72, 7.73, repro,
2007-01-24,1.14, 2.63, -18.83, 2.33, 1.78, 7.96, repro,
2007-01-25,0.30, 2.04, -17.62, 2.31, 1.72, 7.78, repro,
2007-01-26,2.53, 1.90, -25.84, 2.24, 1.68, 7.58, repro,
2007-01-27,2.01, 3.44, -19.11, 2.22, 1.63, 7.35, repro,
2007-01-28,1.40, 2.62, -18.91, 2.26, 1.68, 7.47, repro,
2007-01-29,0.93, 0.36, -14.12, 2.24, 1.64, 7.42, repro,
2007-01-30,1.58, 1.73, -15.93, 2.40, 1.82, 8.18, repro,
2007-01-31,0.91, 1.56, -10.43, 2.23, 1.66, 7.54, repro,
2007-02-01,0.90, 2.14, -11.28, 2.34, 1.73, 7.74, repro,
2007-02-02,1.28, 3.55, -16.12, 2.36, 1.75, 7.91, repro,
2007-02-03,1.48, 2.32, -17.55, 2.43, 1.76, 8.05, repro,
2007-02-04,-0.50, 3.08, -15.71, 2.24, 1.64, 7.34, repro,
2007-02-05,0.99, 1.46, -13.71, 2.23, 1.63, 7.36, repro,
2007-02-06,2.38, 2.08, -19.16, 2.23, 1.65, 7.43, repro,
2007-02-07,1.48, 0.25, -11.05, 2.28, 1.66, 7.51, repro,
2007-02-08,3.81, 2.97, -22.85, 2.27, 1.73, 7.67, repro,
2007-02-09,2.91, 2.48, -15.99, 2.22, 1.69, 7.39, repro,
2007-02-10,4.01, 1.92, -14.79, 2.35, 1.70, 7.77, repro,
2007-02-11,5.95, 0.82, -10.32, 2.27, 1.71, 7.61, repro,
2007-02-12,2.53, 0.94, -16.53, 2.32, 1.76, 7.84, repro,
2007-02-13,1.51, 1.39, -19.01, 2.25, 1.68, 7.47, repro,
2007-02-14,1.85, 1.94, -17.58, 2.25, 1.70, 7.47, repro,
2007-02-15,1.12, -0.97, -12.80, 2.24, 1.67, 7.49, repro,
2007-02-16,1.63, 0.14, -13.64, 2.29, 1.70, 7.68, repro,
2007-02-17,0.49, 0.62, -12.78, 2.29, 1.72, 7.71, repro,
2007-02-18,-0.65, 1.70, -7.66, 2.31, 1.71, 7.81, repro,
2007-02-19,-3.49, 0.38, -3.10, 2.28, 1.71, 7.74, repro,
2007-02-20,1.20, 0.97, -9.65, 2.26, 1.68, 7.50, repro,
2007-02-21,3.01, 1.28, -13.56, 2.22, 1.64, 7.39, repro,
2007-02-22,3.58, 1.21, -17.90, 2.30, 1.68, 7.64, repro,
2007-02-23,3.33, 0.81, -14.07, 2.30, 1.71, 7.76, repro,
2007-02-24,1.89, -1.69, -8.52, 2.33, 1.76, 7.95, repro,
2007-02-25,5.39, -0.43, -10.84, 2.39, 1.81, 8.18, repro,
2007-02-26,3.25, 1.59, -16.57, 2.24, 1.68, 7.56, repro,
2007-02-27,3.32, 1.85, -10.22, 2.21, 1.63, 7.31, repro,
2007-02-28,3.08, 2.05, -13.56, 2.20, 1.62, 7.27, repro,
2007-03-01,0.68, 0.83, -6.12, 2.39, 1.85, 8.07, repro,
2007-03-02,2.48, 2.66, -22.15, 2.27, 1.73, 7.74, repro,
2007-03-03,-0.74, 2.98, -27.46, 2.29, 1.70, 7.75, repro,
2007-03-04,0.99, 1.49, -22.30, 2.32, 1.72, 7.89, repro,
2007-03-05,1.66, 1.15, -18.04, 2.30, 1.74, 7.92, repro,
2007-03-06,0.91, 0.63, -10.96, 2.27, 1.70, 7.63, repro,
2007-03-07,3.50, 1.05, -10.82, 2.28, 1.70, 7.67, repro,
2007-03-08,-0.03, -0.05, -5.56, 2.25, 1.67, 7.55, repro,
2007-03-09,2.10, 1.28, -12.33, 2.29, 1.70, 7.77, repro,
2007-03-10,0.60, 0.48, -7.34, 2.38, 1.76, 8.05, repro,
2007-03-11,0.90, -0.37, -16.95, 2.33, 1.76, 7.92, repro,
2007-03-12,-0.76, -0.15, -11.64, 2.40, 1.85, 8.25, repro,
2007-03-13,2.00, 1.66, -17.81, 2.30, 1.73, 7.88, repro,
2007-03-14,1.67, 1.54, -20.38, 2.42, 1.76, 8.08, repro,
2007-03-15,1.71, 2.57, -26.15, 2.29, 1.69, 7.65, repro,
2007-03-16,0.94, 2.32, -19.14, 2.35, 1.79, 7.85, repro,
2007-03-17,-0.27, 1.21, -9.58, 2.23, 1.66, 7.43, repro,
2007-03-18,-2.08, -0.19, -12.48, 2.26, 1.66, 7.46, repro,
2007-03-19,0.26, 0.43, -2.04, 2.27, 1.66, 7.55, repro,
2007-03-20,-2.58, 1.39, -2.72, 2.37, 1.69, 7.55, repro,
2007-03-21,-0.33, 1.78, -7.51, 2.59, 1.86, 8.36, repro,
2007-03-22,0.67, 3.65, -14.10, 2.28, 1.68, 7.55, repro,
2007-03-23,0.63, 2.90, -20.64, 2.37, 1.76, 7.95, repro,
2007-03-24,-0.46, 1.16, -15.90, 2.42, 1.75, 8.10, repro,
2007-03-25,-3.36, -1.63, -11.30, 2.26, 1.63, 7.40, repro,
2007-03-26,1.17, 1.31, -12.99, 2.36, 1.70, 7.65, repro,
2007-03-27,-1.00, 0.96, -9.72, 2.40, 1.76, 7.92, repro,
2007-03-28,2.26, 1.94, -21.89, 2.38, 1.73, 7.92, repro,
2007-03-29,1.29, 2.19, -22.13, 2.36, 1.76, 8.01, repro,
2007-03-30,1.81, 2.63, -19.01, 2.29, 1.67, 7.60, repro,
2007-03-31,-0.76, 1.69, -20.36, 2.27, 1.67, 7.50, repro,
2007-04-01,2.42, 1.58, -17.01, 2.32, 1.72, 7.64, repro,
2007-04-02,0.06, 0.68, -16.81, 2.32, 1.73, 7.74, repro,
2007-04-03,1.66, 1.00, -19.78, 2.28, 1.68, 7.58, repro,
2007-04-04,3.33, 2.87, -26.45, 2.31, 1.71, 7.76, repro,
2007-04-05,2.60, 2.44, -21.40, 2.34, 1.73, 7.74, repro,
2007-04-06,1.71, 2.26, -14.60, 2.37, 1.76, 7.93, repro,
2007-04-07,4.51, 2.92, -21.91, 2.29, 1.67, 7.48, repro,
2007-04-08,2.66, 1.73, -22.58, 2.25, 1.64, 7.41, repro,
2007-04-09,0.40, 2.13, -6.63, 2.25, 1.62, 7.37, repro,
2007-04-10,0.44, 1.39, -8.35, 2.27, 1.63, 7.41, repro,
2007-04-11,1.59, 1.42, -12.02, 2.25, 1.63, 7.37, repro,
2007-04-12,3.53, 2.31, -8.12, 2.32, 1.70, 7.70, repro,
2007-04-13,1.70, 1.45, -18.26, 2.31, 1.73, 7.80, repro,
2007-04-14,1.08, 0.57, -14.39, 2.43, 1.86, 8.28, repro,
2007-04-15,1.64, 2.91, -19.50, 2.25, 1.61, 7.31, repro,
2007-04-16,0.47, 0.11, -9.14, 2.35, 1.73, 7.73, repro,
2007-04-17,0.54, 0.75, -16.87, 2.25, 1.62, 7.29, repro,
2007-04-18,1.51, 3.02, -20.19, 2.28, 1.66, 7.45, repro,
2007-04-19,2.30, 1.32, -19.44, 2.31, 1.67, 7.59, repro,
2007-04-20,2.44, 0.71, -11.93, 2.39, 1.78, 7.97, repro,
2007-04-21,3.16, 1.54, -9.23, 2.28, 1.65, 7.58, repro,
2007-04-22,3.13, 0.59, -12.97, 2.25, 1.64, 7.41, repro,
2007-04-23,2.06, 1.25, -11.97, 2.36, 1.71, 7.86, repro,
2007-04-24,-0.54, 0.43, -10.88, 2.37, 1.73, 7.91, repro,
2007-04-25,1.90, 2.11, -17.47, 2.44, 1.77, 8.07, repro,
2007-04-26,0.73, 1.38, -12.94, 2.30, 1.67, 7.60, repro,
2007-04-27,0.94, 1.18, -14.51, 2.34, 1.74, 7.81, repro,
2007-04-28,2.38, 2.27, -15.57, 2.31, 1.67, 7.73, repro,
2007-04-29,3.00, 1.31, -17.22, 2.36, 1.73, 7.96, repro,
2007-04-30,2.74, 2.23, -21.79, 2.35, 1.70, 7.88, repro,
2007-05-01,2.01, 1.25, -18.15, 2.41, 1.75, 8.09, repro,
2007-05-02,4.03, 1.93, -18.71, 2.53, 1.79, 8.34, repro,
2007-05-03,0.92, 1.28, -10.45, 2.31, 1.62, 7.52, repro,
2007-05-04,0.27, 1.39, -10.05, 2.40, 1.75, 8.01, repro,
2007-05-05,1.58, 1.10, -17.26, 2.28, 1.63, 7.48, repro,
2007-05-06,-2.22, 0.84, -16.16, 2.35, 1.66, 7.71, repro,
2007-05-07,1.58, 3.18, -23.62, 2.37, 1.68, 7.79, repro,
2007-05-08,1.79, 0.92, -11.32, 2.38, 1.69, 7.85, repro,
2007-05-09,1.84, 0.40, -15.82, 2.54, 1.91, 8.79, repro,
2007-05-10,1.93, 1.83, -22.84, 2.44, 1.75, 8.32, repro,
2007-05-11,2.18, 2.05, -18.04, 2.51, 1.77, 8.53, repro,
2007-05-12,0.89, 0.78, -11.12, 2.51, 1.81, 8.44, repro,
2007-05-13,1.06, 1.67, -16.09, 2.35, 1.67, 7.78, repro,
2007-05-14,2.80, 1.87, -20.38, 2.43, 1.76, 8.03, repro,
2007-05-15,3.60, 3.12, -23.51, 2.41, 1.77, 8.22, repro,
2007-05-16,2.61, 1.71, -18.36, 2.36, 1.68, 7.83, repro,
2007-05-17,0.59, 0.95, -12.50, 2.38, 1.71, 7.99, repro,
2007-05-18,1.40, 2.13, -12.08, 2.56, 1.88, 8.76, repro,
2007-05-19,1.15, 0.38, -9.38, 2.35, 1.70, 7.91, repro,
2007-05-20,2.18, 0.58, -15.21, 2.35, 1.70, 7.69, repro,
2007-05-21,-1.02, 0.23, -11.63, 2.29, 1.63, 7.49, repro,
2007-05-22,4.30, 3.02, -20.15, 2.30, 1.62, 7.51, repro,
2007-05-23,2.55, 1.83, -17.16, 2.39, 1.72, 7.97, repro,
2007-05-24,0.62, 1.94, -11.20, 2.69, 1.91, 8.96, repro,
2007-05-25,3.52, 1.56, -17.83, 2.46, 1.80, 8.18, repro,
2007-05-26,1.02, 2.31, -10.48, 2.44, 1.79, 8.02, repro,
2007-05-27,2.09, 2.69, -15.95, 2.38, 1.71, 7.77, repro,
2007-05-28,1.64, 3.85, -19.58, 2.30, 1.64, 7.50, repro,
2007-05-29,3.41, 3.84, -21.68, 2.39, 1.73, 7.92, repro,
2007-05-30,3.70, 3.89, -23.84, 2.58, 1.77, 8.23, repro,
2007-05-31,1.97, 1.52, -15.84, 2.36, 1.68, 7.69, repro,
2007-06-01,1.56, 2.48, -15.30, 2.63, 1.86, 8.68, repro,
2007-06-02,2.70, 1.82, -7.59, 2.42, 1.79, 8.11, repro,
2007-06-03,2.70, 1.41, -14.98, 2.41, 1.77, 8.06, repro,
2007-06-04,1.76, 1.79, -13.47, 2.34, 1.64, 7.66, repro,
2007-06-05,-0.25, 0.71, -2.67, 2.36, 1.63, 7.55, repro,
2007-06-06,1.06, 2.20, -12.71, 2.33, 1.66, 7.58, repro,
2007-06-07,1.33, 0.72, -15.71, 2.39, 1.67, 7.62, repro,
2007-06-08,1.25, 0.32, -10.30, 2.51, 1.76, 8.23, repro,
2007-06-09,1.13, 0.16, -6.90, 2.29, 1.62, 7.37, repro,
2007-06-10,2.01, -1.28, -12.49, 2.34, 1.63, 7.60, repro,
2007-06-11,1.04, 0.66, -11.30, 2.35, 1.74, 7.79, repro,
2007-06-12,2.29, 1.91, -17.91, 2.37, 1.73, 7.77, repro,
2007-06-13,1.35, -0.52, -14.02, 2.41, 1.77, 7.86, repro,
2007-06-14,1.93, 1.69, -24.35, 2.65, 1.94, 8.63, repro,
2007-06-15,3.14, -0.06, -12.88, 2.28, 1.64, 7.43, repro,
2007-06-16,1.72, -0.38, -12.63, 2.28, 1.62, 7.40, repro,
2007-06-17,0.03, 2.11, -24.14, 2.27, 1.61, 7.33, repro,
2007-06-18,4.07, 1.99, -14.93, 2.54, 1.76, 8.01, repro,
2007-06-19,3.38, 0.92, -13.69, 2.63, 1.87, 8.57, repro,
2007-06-20,1.32, -1.34, -13.34, 2.36, 1.64, 7.57, repro,
2007-06-21,1.86, 0.20, -12.43, 2.29, 1.64, 7.53, repro,
2007-06-22,2.81, -0.30, -14.05, 2.34, 1.70, 7.77, repro,
2007-06-23,3.08, 0.66, -18.86, 2.35, 1.71, 7.79, repro,
2007-06-24,0.41, 0.87, -14.40, 2.46, 1.72, 8.06, repro,
2007-06-25,-0.07, -0.73, -13.16, 2.28, 1.62, 7.41, repro,
2007-06-26,2.94, 1.26, -15.12, 2.32, 1.65, 7.60, repro,
2007-06-27,2.96, -1.24, -11.57, 2.66, 1.85, 8.85, repro,
2007-06-28,2.83, 0.08, -22.70, 2.32, 1.67, 7.60, repro,
2007-06-29,3.93, -1.80, -14.96, 2.30, 1.63, 7.45, repro,
2007-06-30,0.69, -0.86, -9.62, 2.47, 1.78, 8.20, repro,
2007-07-01,1.51, -1.08, -11.37, 2.30, 1.64, 7.51, repro,
2007-07-02,2.01, -0.69, -14.70, 2.27, 1.61, 7.34, repro,
2007-07-03,2.58, 0.06, -15.33, 2.30, 1.67, 7.60, repro,
2007-07-04,3.24, -0.17, -14.21, 2.46, 1.83, 8.24, repro,
2007-07-05,1.50, -1.87, -12.50, 2.37, 1.64, 7.55, repro,
2007-07-06,0.95, -0.40, -12.44, 2.32, 1.66, 7.56, repro,
2007-07-07,2.66, -3.63, -13.79, 2.30, 1.66, 7.47, repro,
2007-07-08,3.90, -3.54, -11.14, 2.32, 1.68, 7.66, repro,
2007-07-09,2.72, 0.04, -14.99, 2.30, 1.67, 7.53, repro,
2007-07-10,2.66, 2.19, -20.62, 2.36, 1.69, 7.72, repro,
2007-07-11,1.21, 0.99, -11.52, 2.28, 1.61, 7.39, repro,
2007-07-12,1.18, -1.51, -11.02, 2.35, 1.66, 7.63, repro,
2007-07-13,1.46, -2.05, -5.16, 2.30, 1.66, 7.54, repro,
2007-07-14,0.25, -0.35, -1.37, 2.38, 1.69, 7.80, repro,
2007-07-15,1.16, -0.29, -8.73, 2.27, 1.61, 7.42, repro,
2007-07-16,0.85, -3.37, -2.04, 2.39, 1.68, 7.75, repro,
2007-07-17,2.16, -2.64, -0.94, 2.32, 1.68, 7.63, repro,
2007-07-18,0.66, -1.97, -5.71, 2.38, 1.74, 7.88, repro,
2007-07-19,0.52, -1.84, 1.83, 2.26, 1.62, 7.35, repro,
2007-07-20,0.92, -1.16, -4.98, 2.28, 1.63, 7.41, repro,
2007-07-21,-1.18, -2.76, 2.64, 2.32, 1.67, 7.57, repro,
2007-07-22,1.29, -0.77, -5.55, 2.30, 1.63, 7.39, repro,
2007-07-23,-0.25, -2.84, 2.50, 2.26, 1.62, 7.30, repro,
2007-07-24,-2.99, -2.91, 8.46, 2.30, 1.66, 7.53, repro,
2007-07-25,1.93, -1.50, -3.05, 2.34, 1.70, 7.76, repro,
2007-07-26,-0.50, -1.02, -4.94, 2.41, 1.68, 7.74, repro,
2007-07-27,1.46, -0.47, -6.28, 2.26, 1.61, 7.33, repro,
2007-07-28,1.61, -0.30, -9.33, 2.24, 1.61, 7.24, repro,
2007-07-29,-1.04, 0.43, -1.88, 2.38, 1.69, 7.71, repro,
2007-07-30,-0.36, -0.50, 0.28, 2.27, 1.61, 7.35, repro,
2007-07-31,1.31, -0.25, -2.14, 2.27, 1.60, 7.33, repro,
2007-08-01,1.18, -1.48, -1.12, 2.25, 1.60, 7.25, repro,
2007-08-02,0.98, -0.62, -3.43, 2.24, 1.60, 7.27, repro,
2007-08-03,1.06, -0.52, -3.14, 2.24, 1.62, 7.33, repro,
2007-08-04,1.10, -1.31, 6.62, 2.27, 1.61, 7.37, repro,
2007-08-05,2.48, -0.40, -5.29, 2.33, 1.70, 7.77, repro,
2007-08-06,1.59, -1.85, 4.67, 2.28, 1.64, 7.46, repro,
2007-08-07,4.95, 0.28, -5.44, 2.28, 1.63, 7.41, repro,
2007-08-08,0.45, -0.30, 0.68, 2.25, 1.61, 7.29, repro,
2007-08-09,0.01, -1.04, 4.62, 2.25, 1.60, 7.30, repro,
2007-08-10,-0.76, -1.98, 4.32, 2.26, 1.61, 7.35, repro,
2007-08-11,1.34, -0.85, 4.79, 2.46, 1.79, 8.17, repro,
2007-08-12,-0.60, -1.50, 0.65, 2.24, 1.60, 7.32, repro,
2007-08-13,-0.12, -1.14, -1.92, 2.27, 1.61, 7.33, repro,
2007-08-14,0.21, -1.36, 0.04, 2.41, 1.71, 7.86, repro,
2007-08-15,0.88, -1.78, 10.75, 2.48, 1.77, 8.11, repro,
2007-08-16,0.77, -0.52, -0.31, 2.35, 1.66, 7.58, repro,
2007-08-17,0.57, -1.37, 2.49, 2.33, 1.66, 7.54, repro,
2007-08-18,1.61, -1.80, 3.01, 2.53, 1.84, 8.46, repro,
2007-08-19,0.70, -0.01, -3.68, 2.56, 1.77, 8.18, repro,
2007-08-20,-0.31, -0.70, 3.56, 2.36, 1.64, 7.54, repro,
2007-08-21,-0.81, -2.50, 6.40, 2.35, 1.65, 7.55, repro,
2007-08-22,0.24, -0.85, -0.85, 2.39, 1.65, 7.61, repro,
2007-08-23,1.55, -1.92, 4.20, 2.34, 1.66, 7.64, repro,
2007-08-24,1.83, -1.65, 3.57, 2.53, 1.78, 8.25, repro,
2007-08-25,1.86, 1.43, 1.61, 2.49, 1.82, 8.25, repro,
2007-08-26,0.71, 0.25, 1.08, 2.44, 1.76, 7.91, repro,
2007-08-27,0.89, -1.27, -3.46, 2.42, 1.72, 7.83, repro,
2007-08-28,0.43, -0.99, -0.89, 2.41, 1.73, 7.88, repro,
2007-08-29,2.30, 0.28, -9.00, 2.37, 1.68, 7.60, repro,
2007-08-30,1.25, -1.42, 1.48, 2.39, 1.73, 7.80, repro,
2007-08-31,-1.26, -2.79, 6.45, 2.36, 1.67, 7.61, repro,
2007-09-01,-1.41, -3.28, 11.00, 2.36, 1.69, 7.64, repro,
2007-09-02,3.57, 0.23, -5.34, 2.37, 1.70, 7.63, repro,
2007-09-03,0.52, -1.96, 3.19, 2.53, 1.77, 8.13, repro,
2007-09-04,1.29, -3.90, 1.22, 2.41, 1.70, 7.68, repro,
2007-09-05,5.54, 1.82, -9.71, 2.36, 1.67, 7.56, repro,
2007-09-06,2.42, 0.15, -0.41, 2.47, 1.79, 8.01, repro,
2007-09-07,1.64, -0.92, -3.16, 2.43, 1.75, 7.97, repro,
2007-09-08,4.66, -0.91, 1.06, 2.56, 1.86, 8.44, repro,
2007-09-09,2.53, 0.54, -7.35, 2.51, 1.81, 8.13, repro,
2007-09-10,-1.01, -1.74, 4.50, 2.53, 1.86, 8.44, repro,
2007-09-11,0.61, -1.40, 3.76, 2.45, 1.79, 8.13, repro,
2007-09-12,0.35, -3.35, 8.00, 2.66, 2.02, 9.01, repro,
2007-09-13,2.36, -1.12, -1.55, 2.47, 1.79, 8.05, repro,
2007-09-14,1.11, -1.53, -5.13, 2.46, 1.78, 8.04, repro,
2007-09-15,0.48, -0.83, 2.79, 2.47, 1.75, 7.98, repro,
2007-09-16,-0.36, -1.21, 1.40, 2.54, 1.77, 8.14, repro,
2007-09-17,-0.78, -1.26, 4.38, 2.44, 1.76, 7.97, repro,
2007-09-18,1.71, -1.69, -1.66, 2.57, 1.95, 8.62, repro,
2007-09-19,2.17, 0.92, -4.66, 2.31, 1.66, 7.54, repro,
2007-09-20,-0.06, 0.06, 2.93, 2.34, 1.68, 7.66, repro,
2007-09-21,0.43, -0.99, 2.81, 2.40, 1.71, 7.86, repro,
2007-09-22,0.81, -2.07, 3.60, 2.36, 1.65, 7.60, repro,
2007-09-23,9.18, 0.83, -10.58, 2.38, 1.70, 7.84, repro,
2007-09-24,3.43, 0.58, 1.60, 2.54, 1.76, 8.10, repro,
2007-09-25,2.11, 0.42, -9.49, 2.40, 1.68, 7.71, repro,
2007-09-26,3.78, 0.27, 0.31, 2.36, 1.65, 7.56, repro,
2007-09-27,-1.26, -0.36, 7.51, 2.42, 1.70, 7.87, repro,
2007-09-28,-1.89, -1.24, 9.12, 2.38, 1.70, 7.74, repro,
2007-09-29,0.52, -0.54, 3.71, 2.45, 1.76, 8.02, repro,
2007-09-30,2.43, -1.09, 2.03, 2.32, 1.67, 7.58, repro,
2007-10-01,-1.45, -1.17, 4.14, 2.39, 1.73, 7.81, repro,
2007-10-02,-0.10, -1.46, 3.58, 2.47, 1.78, 8.12, repro,
2007-10-03,-2.85, -1.70, 9.08, 2.37, 1.68, 7.69, repro,
2007-10-04,0.28, 0.61, 4.88, 2.54, 1.79, 8.27, repro,
2007-10-05,-0.12, 0.74, 8.48, 2.42, 1.78, 8.02, repro,
2007-10-06,-0.74, 1.26, 0.72, 2.44, 1.81, 8.14, repro,
2007-10-07,0.17, -0.39, 1.16, 2.51, 1.75, 8.01, repro,
2007-10-08,0.50, -0.62, 0.52, 2.74, 1.82, 8.54, repro,
2007-10-09,0.40, -1.05, 3.06, 2.64, 1.99, 8.77, repro,
2007-10-10,1.29, -0.02, -5.04, 2.66, 1.80, 8.67, repro,
2007-10-11,0.21, 1.31, -3.64, 2.41, 1.75, 7.92, repro,
2007-10-12,-0.38, -0.30, 3.52, 2.53, 1.85, 8.27, repro,
2007-10-13,-1.14, -1.13, 2.05, 2.49, 1.80, 8.31, repro,
2007-10-14,0.12, 1.21, 6.26, 2.36, 1.67, 7.70, repro,
2007-10-15,0.10, 0.20, 2.54, 2.44, 1.76, 8.07, repro,
2007-10-16,0.10, -0.16, 5.47, 2.30, 1.65, 7.49, repro,
2007-10-17,0.68, 0.90, 3.30, 2.37, 1.72, 7.85, repro,
2007-10-18,-0.46, -0.56, 9.66, 2.41, 1.70, 7.93, repro,
2007-10-19,-1.38, -2.21, 12.79, 2.35, 1.66, 7.59, repro,
2007-10-20,-1.02, -2.22, 11.29, 2.47, 1.77, 8.14, repro,
2007-10-21,-0.30, 0.85, -0.54, 2.42, 1.79, 8.00, repro,
2007-10-22,0.16, 2.93, -7.07, 2.42, 1.77, 8.06, repro,
2007-10-23,-1.25, -0.24, -5.73, 2.63, 1.99, 8.80, repro,
2007-10-24,-2.02, 0.69, -5.46, 2.47, 1.78, 8.07, repro,
2007-10-25,2.64, 1.11, -6.18, 2.42, 1.71, 7.88, repro,
2007-10-26,0.05, 1.01, -9.76, 2.46, 1.81, 8.24, repro,
2007-10-27,0.93, 1.19, -7.74, 2.34, 1.71, 7.77, repro,
2007-10-28,-0.02, 0.01, -4.16, 2.31, 1.65, 7.54, repro,
2007-10-29,1.70, 1.96, -8.15, 2.35, 1.69, 7.76, repro,
2007-10-30,0.83, 0.31, -7.27, 2.42, 1.75, 8.02, repro,
2007-10-31,-0.03, 0.60, -3.36, 2.36, 1.70, 7.79, repro,
2007-11-01,0.58, 0.68, -6.90, 2.32, 1.69, 7.75, repro,
2007-11-02,1.44, 0.65, -5.37, 2.26, 1.62, 7.40, repro,
2007-11-03,0.97, 1.74, -8.25, 2.28, 1.63, 7.43, repro,
2007-11-04,1.57, 1.24, -5.29, 2.45, 1.78, 8.22, repro,
2007-11-05,1.68, 1.18, -10.09, 2.41, 1.79, 8.21, repro,
2007-11-06,0.24, 0.49, -9.15, 2.41, 1.78, 8.22, repro,
2007-11-07,-0.13, 1.82, -6.63, 2.28, 1.64, 7.60, repro,
2007-11-08,1.62, -0.31, -4.65, 2.36, 1.70, 7.88, repro,
2007-11-09,0.22, -1.38, -7.09, 2.37, 1.67, 7.73, repro,
2007-11-10,0.03, -1.19, -2.11, 2.30, 1.64, 7.54, repro,
2007-11-11,0.71, -0.95, -2.02, 2.31, 1.61, 7.51, repro,
2007-11-12,2.04, 1.00, -3.98, 2.29, 1.62, 7.53, repro,
2007-11-13,-2.11, -0.10, 0.05, 2.38, 1.70, 7.91, repro,
2007-11-14,1.53, 0.17, -12.11, 2.41, 1.74, 8.08, repro,
2007-11-15,-0.46, -1.93, -2.65, 2.36, 1.70, 7.76, repro,
2007-11-16,1.53, -1.51, -4.03, 2.30, 1.68, 7.67, repro,
2007-11-17,0.33, -1.72, -4.27, 2.27, 1.62, 7.45, repro,
2007-11-18,0.36, -0.85, -2.70, 2.26, 1.63, 7.40, repro,
2007-11-19,1.07, 0.80, -5.58, 2.26, 1.62, 7.38, repro,
2007-11-20,3.01, 1.76, -19.10, 2.28, 1.66, 7.52, repro,
2007-11-21,0.02, -0.33, -9.41, 2.27, 1.63, 7.39, repro,